Weather in Kamenka

Russia / Penza Oblast     53°11′07″N   44°02′48″E
temp.,
°C
wind,
m/s
gust,
m/s
humid.,
%
clouds,
%
prec.,
mm/h
press.,
hPa
HPBL,
m
20 june, sun
sun2000:00+16w11855 0.0 102511
03:00+15wnw11860 0.0 102511
06:00+18nw11810 0.0 102586
09:00+23n11680 0.0 1024452
12:00+26n11520 0.0 1024941
15:00+27nne11480 0.0 10231177
18:00+27nne11610 0.0 1022741
21:00+21ne11690 0.0 102211
21 june, mon
mon2100:00+19ese128121 0.0 102211
03:00+18ese118549 0.0 102311
06:00+21e128068 0.0 102379
09:00+24ese2270100 0.0 1023493
12:00+27sse225498 0.0 10221242
15:00+28s1250100 0.0 10221555
18:00+27e1164100 0.0 102111
21:00+22se117385 0.0 102211
22 june, tue
tue2200:00+20ese128045 0.0 102211
03:00+19ese118547 0.0 102311
06:00+22e238033 0.0 102393
09:00+26ese226794 0.0 1023548
12:00+28se225322 0.0 10231550
15:00+29ese22480 0.0 10221937
18:00+29e12605 0.0 1021348
21:00+23ene116631 0.0 102111
23 june, wed
wed2300:00+21ene227112 0.0 102211
03:00+20ene11816 0.0 102211
06:00+23e12795 0.0 102286
09:00+27ene336421 0.0 1022529
12:00+29ene33534 0.0 10221566
15:00+30ene22450 0.0 10222010
18:00+29nne22585 0.0 102181
21:00+23ene22741 0.0 102214
24 june, thu
thu2400:00+22ene12750 0.0 102211
03:00+21ne12760 0.0 102211
06:00+23ne12740 0.0 102274
09:00+27ene22595 0.0 1021408
12:00+30nne11481 0.0 10201718
15:00+31n11420 0.0 10202096
18:00+30nw22560 0.0 101961
21:00+24ene227190 0.0 101813